This is the latest recevied weather packets stored in our database for station/object WA1TYB-13. If no packets are shown the sender has not sent any weather packets the latest 10 day(s).
| Time | Temp. | Humidity | Pressure | Rain* | Wind** | Luminosity | Snow |
|---|---|---|---|---|---|---|---|
| 1777690794 | 15.56° C | 30% | 1017.7 hPa | 0 mm | - | 0 W/m² | - |
| 1777690491 | 16.11° C | 28% | 1017.9 hPa | 0 mm | - | 0 W/m² | - |
| 1777690189 | 16.11° C | 30% | 1017.9 hPa | 0 mm | - | 0 W/m² | - |
| 1777689887 | 16.11° C | 32% | 1017.6 hPa | 0 mm | - | 0 W/m² | - |
| 1777689585 | 16.67° C | 30% | 1017.5 hPa | 0 mm | - | 1 W/m² | - |
| 1777689282 | 16.67° C | 29% | 1017.8 hPa | 0 mm | - | 1 W/m² | - |
| 1777688979 | 16.67° C | 32% | 1017.9 hPa | 0 mm | - | 4 W/m² | - |
| 1777688675 | 16.67° C | 31% | 1017.5 hPa | 0 mm | - | 6 W/m² | - |
| 1777688372 | 16.67° C | 32% | 1017.5 hPa | 0 mm | - | 9 W/m² | - |
| 1777688070 | 17.22° C | 32% | 1017.7 hPa | 0 mm | - | 13 W/m² | - |
| 1777687767 | 17.22° C | 32% | 1017.6 hPa | 0 mm | - | 18 W/m² | - |
| 1777687465 | 17.22° C | 32% | 1017.7 hPa | 0 mm | - | 23 W/m² | - |
| 1777687161 | 17.78° C | 34% | 1017.5 hPa | 0 mm | - | 27 W/m² | - |
| 1777686860 | 18.33° C | 32% | 1017.5 hPa | 0 mm | - | 31 W/m² | - |
| 1777686556 | 18.33° C | 31% | 1017.5 hPa | 0 mm | - | 34 W/m² | - |
| 1777686253 | 18.89° C | 30% | 1017.7 hPa | 0 mm | - | 37 W/m² | - |
| 1777685949 | 18.89° C | 30% | 1017.7 hPa | 0 mm | - | 42 W/m² | - |
| 1777685644 | 18.89° C | 30% | 1017.8 hPa | 0 mm | - | 45 W/m² | - |
| 1777685341 | 19.44° C | 29% | 1017.9 hPa | 0 mm | - | 58 W/m² | - |
| 1777685039 | 19.44° C | 28% | 1017.8 hPa | 0 mm | - | 62 W/m² | - |
| 1777684736 | 20° C | 26% | 1017.8 hPa | 0 mm | - | 63 W/m² | - |
| 1777684432 | 20° C | 24% | 1017.8 hPa | 0 mm | - | 84 W/m² | - |
| 1777684129 | 20° C | 25% | 1017.9 hPa | 0 mm | - | 106 W/m² | - |
| 1777683826 | 20.56° C | 26% | 1017.7 hPa | 0 mm | - | 114 W/m² | - |
| 1777683523 | 20.56° C | 24% | 1017.6 hPa | 0 mm | - | 123 W/m² | - |
* Rain latest hour (hover to see other rain measurements)
** Current wind speed in m/s (hover to see current wind gust speed)